EZY51UW EGNS-EGGD

Flight info

Callsign EZY51UW
Flight time 0h 39m
Altitude 23000
Route TIMIS Q39 NOMSU Q4 WAL N862 WEVBE
Aircraft A320/M-SDE3FGHIRWY/LB1

Departure

Time 2026-04-20 02:04
Airport Isle of Man Airport (EGNS)

Arrival

Time 2026-04-20 02:43
Airport Bristol Airport (EGGD)
Time Latitude Longitude Altitude Speed Heading
2026-04-20 01:58 54.08575 -4.63423 45 ft 0 kts 134°
2026-04-20 02:00 54.08568 -4.63411 44 ft 5 kts 134°
2026-04-20 02:00 54.08532 -4.63349 44 ft 9 kts 136°
2026-04-20 02:00 54.08480 -4.63358 45 ft 9 kts 207°
2026-04-20 02:00 54.08412 -4.63388 43 ft 12 kts 171°
2026-04-20 02:01 54.08361 -4.63433 41 ft 8 kts 249°
2026-04-20 02:01 54.08347 -4.63528 44 ft 7 kts 257°
2026-04-20 02:01 54.08341 -4.63572 46 ft 1 kts 256°
2026-04-20 02:01 54.08336 -4.63598 47 ft 7 kts 249°
2026-04-20 02:02 54.08295 -4.63734 44 ft 15 kts 242°
2026-04-20 02:02 54.08245 -4.63881 42 ft 12 kts 227°
2026-04-20 02:02 54.08163 -4.63883 33 ft 7 kts 150°
2026-04-20 02:02 54.08148 -4.63817 35 ft 5 kts 86°
2026-04-20 02:03 54.08149 -4.63808 35 ft 0 kts 79°
2026-04-20 02:03 54.08179 -4.63563 33 ft 60 kts 77°
2026-04-20 02:03 54.08316 -4.62484 45 ft 124 kts 78°
2026-04-20 02:03 54.08534 -4.60776 137 ft 163 kts 76°
2026-04-20 02:04 54.08757 -4.58959 882 ft 153 kts 75°
2026-04-20 02:04 54.08979 -4.57137 1403 ft 165 kts 75°
2026-04-20 02:04 54.09148 -4.55117 1799 ft 186 kts 94°
2026-04-20 02:04 54.08546 -4.53094 2226 ft 207 kts 139°
2026-04-20 02:05 54.07188 -4.51958 2636 ft 230 kts 159°
2026-04-20 02:05 54.05607 -4.51040 3174 ft 251 kts 161°
2026-04-20 02:05 54.03910 -4.50115 3955 ft 259 kts 161°
2026-04-20 02:05 54.02179 -4.49163 4876 ft 263 kts 161°
2026-04-20 02:06 54.00430 -4.48176 5794 ft 266 kts 161°
2026-04-20 02:06 53.98666 -4.47160 6693 ft 270 kts 161°
2026-04-20 02:06 53.96879 -4.46121 7559 ft 273 kts 161°
2026-04-20 02:06 53.95065 -4.45064 8396 ft 278 kts 161°
2026-04-20 02:07 53.93222 -4.43986 9211 ft 282 kts 160°
2026-04-20 02:07 53.91350 -4.42886 10023 ft 287 kts 161°
2026-04-20 02:07 53.89466 -4.41742 10598 ft 300 kts 156°
2026-04-20 02:07 53.87563 -4.39881 10883 ft 323 kts 142°
2026-04-20 02:08 53.85922 -4.37262 11426 ft 334 kts 129°
2026-04-20 02:08 53.84544 -4.34057 12108 ft 339 kts 123°
2026-04-20 02:08 53.83198 -4.30732 12798 ft 345 kts 123°
2026-04-20 02:08 53.81822 -4.27370 13498 ft 350 kts 123°
2026-04-20 02:09 53.80424 -4.23973 14189 ft 354 kts 123°
2026-04-20 02:09 53.79007 -4.20539 14876 ft 358 kts 123°
2026-04-20 02:09 53.77575 -4.17071 15544 ft 361 kts 123°
2026-04-20 02:09 53.76130 -4.13567 16189 ft 366 kts 123°
2026-04-20 02:10 53.74671 -4.10024 16838 ft 369 kts 123°
2026-04-20 02:10 53.73201 -4.06459 17467 ft 372 kts 123°
2026-04-20 02:10 53.71714 -4.02864 18081 ft 375 kts 123°
2026-04-20 02:10 53.70211 -3.99241 18678 ft 378 kts 123°
2026-04-20 02:11 53.68693 -3.95587 19236 ft 382 kts 123°
2026-04-20 02:11 53.67158 -3.91893 19770 ft 387 kts 124°
2026-04-20 02:11 53.65606 -3.88159 20313 ft 391 kts 124°
2026-04-20 02:11 53.64037 -3.84388 20823 ft 395 kts 124°
2026-04-20 02:12 53.62448 -3.80577 21324 ft 399 kts 124°
2026-04-20 02:12 53.60843 -3.76724 21812 ft 404 kts 124°
2026-04-20 02:12 53.59219 -3.72831 22294 ft 408 kts 124°
2026-04-20 02:12 53.57578 -3.68905 22776 ft 413 kts 124°
2026-04-20 02:13 53.55917 -3.64943 23196 ft 416 kts 124°
2026-04-20 02:13 53.54239 -3.60957 23308 ft 416 kts 124°
2026-04-20 02:13 53.52600 -3.57076 23328 ft 399 kts 124°
2026-04-20 02:13 53.51012 -3.53324 23328 ft 391 kts 124°
2026-04-20 02:14 53.49437 -3.49605 23331 ft 390 kts 124°
2026-04-20 02:14 53.47868 -3.45901 23333 ft 390 kts 124°
2026-04-20 02:14 53.46481 -3.42002 23331 ft 389 kts 114°
2026-04-20 02:14 53.45413 -3.37839 23332 ft 389 kts 111°
2026-04-20 02:15 53.44363 -3.33660 23329 ft 389 kts 111°
2026-04-20 02:15 53.43303 -3.29481 23331 ft 389 kts 111°
2026-04-20 02:15 53.42237 -3.25315 23330 ft 389 kts 111°
2026-04-20 02:15 53.41148 -3.21116 23331 ft 396 kts 114°
2026-04-20 02:16 53.39733 -3.17137 23329 ft 400 kts 127°
2026-04-20 02:16 53.37883 -3.13657 23332 ft 400 kts 139°
2026-04-20 02:16 53.35682 -3.10819 23328 ft 399 kts 150°
2026-04-20 02:16 53.33204 -3.08633 23332 ft 397 kts 157°
2026-04-20 02:17 53.30747 -3.06665 23330 ft 398 kts 157°
2026-04-20 02:17 53.28243 -3.04659 23330 ft 398 kts 157°
2026-04-20 02:17 53.25744 -3.02661 23329 ft 398 kts 157°
2026-04-20 02:17 53.23208 -3.00640 23331 ft 399 kts 157°
2026-04-20 02:18 53.20703 -2.98651 23329 ft 399 kts 157°
2026-04-20 02:18 53.18236 -2.96689 23331 ft 399 kts 157°
2026-04-20 02:18 53.15733 -2.94694 23331 ft 399 kts 157°
2026-04-20 02:18 53.13230 -2.92703 23329 ft 399 kts 157°
2026-04-20 02:19 53.10721 -2.90733 23327 ft 398 kts 160°
2026-04-20 02:19 53.08113 -2.89288 23330 ft 393 kts 171°
2026-04-20 02:19 53.05423 -2.88630 23323 ft 388 kts 182°
2026-04-20 02:19 53.02745 -2.88704 23323 ft 384 kts 188°
2026-04-20 02:20 53.00080 -2.88943 23323 ft 384 kts 188°
2026-04-20 02:20 52.97408 -2.89172 23322 ft 384 kts 188°
2026-04-20 02:20 52.94736 -2.89395 23322 ft 384 kts 188°
2026-04-20 02:20 52.92066 -2.89618 23323 ft 385 kts 188°
2026-04-20 02:21 52.86765 -2.90463 23326 ft 381 kts 194°
2026-04-20 02:21 52.84138 -2.91085 23328 ft 381 kts 194°
2026-04-20 02:21 52.81514 -2.91706 23330 ft 381 kts 194°
2026-04-20 02:22 52.78893 -2.92327 23332 ft 381 kts 194°
2026-04-20 02:22 52.76265 -2.92946 23332 ft 381 kts 194°
2026-04-20 02:22 52.73639 -2.93558 23335 ft 381 kts 194°
2026-04-20 02:22 52.71007 -2.94130 23333 ft 383 kts 191°
2026-04-20 02:23 52.68332 -2.94367 23335 ft 385 kts 189°
2026-04-20 02:23 52.65661 -2.94584 23333 ft 385 kts 189°
2026-04-20 02:23 52.63887 -2.94729 23332 ft 385 kts 189°
2026-04-20 02:23 52.60313 -2.95024 23332 ft 385 kts 189°
2026-04-20 02:24 52.58543 -2.95168 23335 ft 385 kts 189°
2026-04-20 02:24 52.55866 -2.95387 23325 ft 384 kts 189°
2026-04-20 02:24 52.53222 -2.95598 23077 ft 377 kts 189°
2026-04-20 02:24 52.50632 -2.95803 22828 ft 370 kts 189°
2026-04-20 02:25 52.48077 -2.96008 22442 ft 366 kts 189°
2026-04-20 02:25 52.45536 -2.96217 21988 ft 365 kts 189°
2026-04-20 02:25 52.42995 -2.96434 21523 ft 365 kts 189°
2026-04-20 02:25 52.40460 -2.96651 21060 ft 365 kts 189°
2026-04-20 02:26 52.37930 -2.96868 20611 ft 364 kts 188°
2026-04-20 02:26 52.35400 -2.97077 20155 ft 364 kts 188°
2026-04-20 02:26 52.32875 -2.97279 19705 ft 363 kts 188°
2026-04-20 02:26 52.30353 -2.97481 19258 ft 362 kts 188°
2026-04-20 02:27 52.27873 -2.97677 18839 ft 361 kts 187°
2026-04-20 02:27 52.25370 -2.97877 18417 ft 360 kts 187°
2026-04-20 02:27 52.22877 -2.98081 17997 ft 358 kts 187°
2026-04-20 02:27 52.20398 -2.98285 17583 ft 356 kts 187°
2026-04-20 02:28 52.17927 -2.98487 17161 ft 355 kts 187°
2026-04-20 02:28 52.15466 -2.98689 16760 ft 353 kts 187°
2026-04-20 02:28 52.13018 -2.98887 16358 ft 352 kts 187°
2026-04-20 02:28 52.10591 -2.99082 16146 ft 344 kts 186°
2026-04-20 02:29 52.08241 -2.99272 16053 ft 335 kts 187°
2026-04-20 02:29 52.05926 -2.99460 15923 ft 331 kts 187°
2026-04-20 02:29 52.03628 -2.99649 15793 ft 330 kts 187°
2026-04-20 02:29 52.01332 -2.99837 15659 ft 330 kts 187°
2026-04-20 02:30 51.99046 -3.00023 15531 ft 329 kts 186°
2026-04-20 02:30 51.96761 -3.00186 15395 ft 329 kts 183°
2026-04-20 02:30 51.94479 -2.99793 15252 ft 332 kts 171°
2026-04-20 02:30 51.92268 -2.98658 14883 ft 334 kts 162°
2026-04-20 02:31 51.90100 -2.97341 14552 ft 332 kts 161°
2026-04-20 02:31 51.87945 -2.96033 14219 ft 330 kts 161°
2026-04-20 02:31 51.85800 -2.94744 13892 ft 328 kts 162°
2026-04-20 02:31 51.83670 -2.93473 13568 ft 325 kts 161°
2026-04-20 02:32 51.81558 -2.92212 13251 ft 323 kts 161°
2026-04-20 02:32 51.79460 -2.90958 12932 ft 320 kts 161°
2026-04-20 02:32 51.77375 -2.89712 12618 ft 318 kts 161°
2026-04-20 02:32 51.75305 -2.88478 12302 ft 316 kts 161°
2026-04-20 02:33 51.73244 -2.87253 11990 ft 314 kts 161°
2026-04-20 02:33 51.71198 -2.86050 11684 ft 312 kts 163°
2026-04-20 02:33 51.69146 -2.85142 11383 ft 308 kts 166°
2026-04-20 02:33 51.67050 -2.84303 11074 ft 305 kts 173°
2026-04-20 02:34 51.64971 -2.84486 10776 ft 297 kts 196°
2026-04-20 02:34 51.63011 -2.85432 10229 ft 291 kts 204°
2026-04-20 02:34 51.61249 -2.86977 9564 ft 287 kts 214°
2026-04-20 02:34 51.59584 -2.88725 8907 ft 285 kts 215°
2026-04-20 02:35 51.57946 -2.90511 8245 ft 283 kts 215°
2026-04-20 02:35 51.56359 -2.92274 7633 ft 279 kts 215°
2026-04-20 02:35 51.54795 -2.94021 7167 ft 270 kts 215°
2026-04-20 02:35 51.53268 -2.95732 6581 ft 266 kts 215°
2026-04-20 02:36 51.51753 -2.97437 6180 ft 266 kts 215°
2026-04-20 02:36 51.50245 -2.99142 5810 ft 264 kts 215°
2026-04-20 02:36 51.48746 -3.00841 5407 ft 263 kts 215°
2026-04-20 02:36 51.47259 -3.02536 5048 ft 262 kts 215°
2026-04-20 02:37 51.45781 -3.04230 4668 ft 260 kts 215°
2026-04-20 02:37 51.44318 -3.05914 4349 ft 256 kts 215°
2026-04-20 02:37 51.42786 -3.07180 4214 ft 243 kts 190°
2026-04-20 02:37 51.41153 -3.07246 4086 ft 229 kts 173°
2026-04-20 02:38 51.39619 -3.06822 3920 ft 220 kts 157°
2026-04-20 02:38 51.38348 -3.05614 3789 ft 208 kts 135°
2026-04-20 02:38 51.37499 -3.03844 3660 ft 195 kts 114°
2026-04-20 02:38 51.37120 -3.01844 3567 ft 182 kts 95°
2026-04-20 02:39 51.37134 -2.99853 3298 ft 178 kts 85°
2026-04-20 02:39 51.37219 -2.97887 3046 ft 176 kts 85°
2026-04-20 02:39 51.37301 -2.95931 3009 ft 176 kts 85°
2026-04-20 02:39 51.37382 -2.93968 3001 ft 177 kts 85°
2026-04-20 02:40 51.37463 -2.91998 2863 ft 178 kts 85°
2026-04-20 02:40 51.37544 -2.90026 2664 ft 177 kts 85°
2026-04-20 02:40 51.37624 -2.88066 2431 ft 175 kts 85°
2026-04-20 02:40 51.37700 -2.86173 2209 ft 170 kts 85°
2026-04-20 02:41 51.37776 -2.84282 1985 ft 166 kts 85°
2026-04-20 02:41 51.37847 -2.82507 1768 ft 157 kts 85°
2026-04-20 02:41 51.37914 -2.80836 1577 ft 143 kts 85°
2026-04-20 02:41 51.37975 -2.79294 1403 ft 136 kts 85°
2026-04-20 02:42 51.38036 -2.77799 1217 ft 134 kts 84°
2026-04-20 02:42 51.38096 -2.76319 1038 ft 133 kts 85°
2026-04-20 02:42 51.38153 -2.74841 844 ft 133 kts 85°
2026-04-20 02:42 51.38210 -2.73370 665 ft 132 kts 85°
2026-04-20 02:43 51.38269 -2.72045 622 ft 92 kts 86°
2026-04-20 02:43 51.38290 -2.71493 610 ft 8 kts 85°
2026-04-20 02:43 51.38334 -2.71470 611 ft 11 kts 336°
2026-04-20 02:43 51.38393 -2.71527 605 ft 8 kts 328°
2026-04-20 02:44 51.38415 -2.71535 608 ft 0 kts
2026-04-20 02:44 51.38418 -2.71535 613 ft 3 kts
2026-04-20 02:44 51.38438 -2.71494 613 ft 4 kts 74°
2026-04-20 02:44 51.38445 -2.71432 624 ft 6 kts 84°
2026-04-20 02:45 51.38445 -2.71428 613 ft 0 kts 84°